Location: Unnamed
(51.5169°N, 0.1311°W)
Time: 21:22:57
(UTC+01:00)

Tiros 1 - Pass Details

Date: 08 August 2024
Orbit: 623 x 655 km, 48.4° (Epoch: 16 September)

Event Time Altitude Azimuth Distance (km) Brightness Sun altitude
Rises 07:02:46 0° 214° (SSW) 2,969 10.1 11.9°
Reaches altitude 10° 07:05:28 10° 200° (SSW) 2,061 9.5 12.3°
Maximum altitude 07:09:14 24° 147° (SSE) 1,362 9.2 12.9°
Drops below altitude 10° 07:13:01 10° 95° (E) 2,064 11.8 13.5°
Sets 07:15:43 0° 81° (E) 2,975 12.6 13.9°
